SL-8 DEB

Satellite information

Favourite Embed

Satellite Type and Status

DEBRISIN ORBIT

Key statistics

Satellite SL-8 DEB at a glance.

Uptime

13690

Days in orbit

Revolutions

≈ 14.4

Per day

Orbit

LEO

Low Earth Orbit

Inclination

74.1

Latest

Satellite identification and parameters

Extended collection of information and parameters for SL-8 DEB.

Object identification

Identified? True

Debris? True

Object name: SL-8 DEB

International designator: 1988-053E

Object number (NORAD): 43117

Object ID (CCSDS): 43117

Country: COMMONWEALTH OF INDEPENDENT STATES (CIS)

Current information (Y/N): Y

RCS size: SMALL

Orbital parameters

Period: 100.131 minutes

Inclination: 74.0516 deg

SMA: 7142.881 km

Apoapsis: 778.524 km

Periapsis: 750.967 km

RAAN: 287.1595 deg

Eccentricy: 0.00192896

Argument of periapsis: 128.8366 deg

Mean anomaly: 231.4513 deg

Mean motion: 14.38111902 rev/day

Mean motion (dot): 0.00000384 rev/day2

B* drag term: 0.00013497809 1/REarth

Two-line elements (TLE)

Creation date: Dec. 13, 2025, 4:32 a.m.

Reference frame: TEME

Reference center: EARTH

Epoch: Dec. 12, 2025, 1:49 p.m. UTC

TLE line 0: 0 SL-8 DEB

TLE line 1: 1 43117U 88053E 25346.57638045 .00000384 00000-0 13498-3 0 9991

TLE line 2: 2 43117 74.0516 287.1595 0019290 128.8366 231.4513 14.38111902416519

Live tracking on map

Real-time ground track for satellite SL-8 DEB.

In-orbit conjunctions

A list of the most updated potential collisions computed for object SL-8 DEB.

Target Orbit TCA Probability of collision Miss distance Type
COSMOS 1275 DEB LEO 2025-05-10 20:41:52 0.0002110055 140.0 (m) DEBRIS
SL-8 DEB LEO 2024-08-24 01:34:15 0.0001941724 87.0 (m) DEBRIS

Associated space launch

Military communications satellite

SL-8 DEB was lifted into orbit during the mission ‘Kosmos-3M | Strela-2M 45’, on board a Kosmos-3M space rocket.

The launch took place on June 21, 1988, 4:26 p.m. from 133/3 (133L).

For more information about the launch, click the button.

Launch to space Kosmos-3M | Strela-2M 45
Kosmos-3M | Strela-2M 45

Agency: N/A

Status: Launch Successful

Launch date: June 21, 1988, 4:26 p.m. UTC

Rocket: Kosmos-3M

Launch pad: 133/3 (133L)

Location: Plesetsk Cosmodrome, Russian Federation

...

Latest news about this satellite

There are no fresh news available about this satellite. Check back as we update our databases every day.


Newsletter sign-up

Weekly statistics, charts and insights to help you stay on top of the space industry.